Station Historical Data
Daily Summary for September 20, 2017 Units:  Metric    English   Both
« Previous Day
Next Day »
Daily Weekly Monthly Yearly Custom
  High: Low: Average:
Temperature: 28.3 °C 15 °C 21.4 °C
Dew Point: 20.1 °C 13.7 °C 16.8 °C
Humidity: 93% 50% 77%
Wind Speed: 12.9km/h 0km/h 2.3km/h
Wind Gust: 19.3km/h - -
Wind- - ENE
Pressure: 1016.5 hPa 1014.4 hPa -
Precipitation: 0 mm    
Historical Graphs
 
 
Tabular Data for September 20, 2017
Time Temperature Dew Point Pressure Wind Wind Speed Wind Gust Humidity Rainfall Rate (Hourly)
00:04 19.1 °C 16.9 °C 1014.8 hPa Calm     87% 0 mm
00:09 18.9 °C 16.7 °C 1014.8 hPa Calm     87% 0 mm
00:14 18.8 °C 16.6 °C 1014.8 hPa Calm     87% 0 mm
00:19 18.8 °C 16.7 °C 1014.8 hPa Calm     88% 0 mm
00:24 18.7 °C 16.7 °C 1014.8 hPa Calm     88% 0 mm
00:29 18.7 °C 16.6 °C 1014.8 hPa Calm     88% 0 mm
00:34 18.6 °C 16.6 °C 1014.4 hPa Calm     88% 0 mm
00:39 18.4 °C 16.4 °C 1014.8 hPa Calm     88% 0 mm
00:44 18.3 °C 16.5 °C 1014.8 hPa Calm     89% 0 mm
00:49 18.2 °C 16.4 °C 1014.8 hPa Calm     89% 0 mm
00:54 18.2 °C 16.3 °C 1014.8 hPa Calm     89% 0 mm
00:59 18.1 °C 16.2 °C 1014.8 hPa Calm     89% 0 mm
01:04 18 °C 16.2 °C 1014.8 hPa Calm     89% 0 mm
01:09 17.9 °C 16.1 °C 1014.8 hPa Calm     89% 0 mm
01:14 17.9 °C 16.3 °C 1014.8 hPa Calm     90% 0 mm
01:19 17.8 °C 16.2 °C 1014.8 hPa Calm     90% 0 mm
01:24 17.7 °C 16.1 °C 1015.1 hPa Calm     90% 0 mm
01:29 17.7 °C 16.1 °C 1015.1 hPa Calm     90% 0 mm
01:34 17.7 °C 16 °C 1015.1 hPa Calm     90% 0 mm
01:39 17.7 °C 16 °C 1014.8 hPa Calm     90% 0 mm
01:44 17.6 °C 15.9 °C 1015.1 hPa Calm     90% 0 mm
01:49 17.6 °C 15.9 °C 1014.8 hPa Calm     90% 0 mm
01:54 17.5 °C 15.8 °C 1014.8 hPa Calm     90% 0 mm
01:59 17.5 °C 15.8 °C 1014.8 hPa Calm     90% 0 mm
02:04 17.4 °C 15.9 °C 1014.8 hPa Calm     91% 0 mm
02:09 17.3 °C 15.8 °C 1015.1 hPa Calm     91% 0 mm
02:14 17.3 °C 15.6 °C 1015.1 hPa Calm     90% 0 mm
02:19 17.2 °C 15.7 °C 1015.1 hPa Calm     91% 0 mm
02:24 17.2 °C 15.7 °C 1015.1 hPa Calm     91% 0 mm
02:29 17.1 °C 15.6 °C 1015.1 hPa Calm     91% 0 mm
02:34 17 °C 15.5 °C 1015.1 hPa Calm     91% 0 mm
02:39 16.9 °C 15.4 °C 1014.8 hPa Calm     91% 0 mm
02:44 16.8 °C 15.3 °C 1014.8 hPa Calm     91% 0 mm
02:49 16.8 °C 15.3 °C 1014.8 hPa Calm     91% 0 mm
02:54 16.8 °C 15.3 °C 1015.1 hPa Calm     91% 0 mm
02:59 16.7 °C 15.2 °C 1014.8 hPa Calm     91% 0 mm
03:04 16.7 °C 15.2 °C 1014.8 hPa Calm     91% 0 mm
03:09 16.7 °C 15.2 °C 1014.8 hPa Calm     91% 0 mm
03:14 16.7 °C 15.2 °C 1014.8 hPa Calm     91% 0 mm
03:19 16.6 °C 15.1 °C 1014.8 hPa Calm     91% 0 mm
03:24 16.6 °C 15.1 °C 1014.8 hPa Calm     91% 0 mm
03:29 16.6 °C 15.1 °C 1014.8 hPa Calm     91% 0 mm
03:34 16.5 °C 15 °C 1014.8 hPa Calm     91% 0 mm
03:39 16.4 °C 14.9 °C 1014.8 hPa Calm     91% 0 mm
03:44 16.3 °C 14.8 °C 1014.8 hPa Calm     91% 0 mm
03:49 16.3 °C 14.8 °C 1014.8 hPa Calm     91% 0 mm
03:54 16.3 °C 14.8 °C 1014.8 hPa Calm     91% 0 mm
03:59 16.3 °C 14.8 °C 1014.8 hPa Calm     91% 0 mm
04:04 16.3 °C 14.8 °C 1014.8 hPa Calm     91% 0 mm
04:09 16.2 °C 14.7 °C 1014.8 hPa Calm     91% 0 mm
04:14 16.1 °C 14.7 °C 1014.8 hPa Calm     91% 0 mm
04:19 16.1 °C 14.7 °C 1014.8 hPa Calm     91% 0 mm
04:24 16.1 °C 14.6 °C 1014.8 hPa Calm     91% 0 mm
04:29 16.1 °C 14.6 °C 1014.8 hPa Calm     91% 0 mm
04:34 16 °C 14.7 °C 1014.8 hPa Calm     92% 0 mm
04:39 16 °C 14.7 °C 1014.8 hPa Calm     92% 0 mm
04:44 15.9 °C 14.7 °C 1014.8 hPa Calm     92% 0 mm
04:49 15.9 °C 14.4 °C 1014.8 hPa Calm     91% 0 mm
04:54 15.8 °C 14.4 °C 1014.8 hPa Calm     91% 0 mm
04:59 15.7 °C 14.2 °C 1014.8 hPa Calm     91% 0 mm
05:04 15.6 °C 14.1 °C 1015.1 hPa Calm     91% 0 mm
05:09 15.4 °C 14 °C 1014.8 hPa Calm     91% 0 mm
05:14 15.4 °C 13.9 °C 1014.8 hPa Calm     91% 0 mm
05:19 15.4 °C 14.1 °C 1014.8 hPa Calm     92% 0 mm
05:24 15.3 °C 14 °C 1015.1 hPa Calm     92% 0 mm
05:29 15.2 °C 13.9 °C 1015.1 hPa Calm     92% 0 mm
05:34 15.2 °C 13.9 °C 1015.1 hPa Calm     92% 0 mm
05:39 15.2 °C 13.9 °C 1015.1 hPa Calm     92% 0 mm
05:44 15.2 °C 13.9 °C 1015.1 hPa Calm     92% 0 mm
05:49 15.2 °C 13.9 °C 1015.1 hPa Calm     92% 0 mm
05:54 15.1 °C 13.8 °C 1015.1 hPa Calm     92% 0 mm
05:59 15.2 °C 13.9 °C 1015.1 hPa Calm     92% 0 mm
06:04 15.3 °C 14 °C 1015.1 hPa Calm     92% 0 mm
06:09 15.2 °C 13.9 °C 1015.1 hPa Calm     92% 0 mm
06:14 15.1 °C 13.8 °C 1015.1 hPa Calm     92% 0 mm
06:19 15.1 °C 13.8 °C 1015.1 hPa Calm     92% 0 mm
06:24 15.1 °C 13.8 °C 1015.5 hPa Calm     92% 0 mm
06:29 15.2 °C 13.9 °C 1015.5 hPa Calm     92% 0 mm
06:34 15.1 °C 13.8 °C 1015.5 hPa Calm     92% 0 mm
06:39 15 °C 13.7 °C 1015.5 hPa Calm     92% 0 mm
06:44 15.1 °C 13.8 °C 1015.5 hPa Calm     92% 0 mm
06:49 15.3 °C 14.2 °C 1015.5 hPa Calm     93% 0 mm
06:54 15.4 °C 14.3 °C 1015.8 hPa Calm     93% 0 mm
06:59 15.4 °C 14.3 °C 1015.8 hPa Calm     93% 0 mm
07:04 15.5 °C 14.4 °C 1015.8 hPa Calm     93% 0 mm
07:09 15.6 °C 14.3 °C 1015.8 hPa Calm     92% 0 mm
07:14 15.6 °C 14.3 °C 1015.8 hPa Calm     92% 0 mm
07:19 15.7 °C 14.6 °C 1015.8 hPa Calm     93% 0 mm
07:24 15.7 °C 14.6 °C 1015.8 hPa Calm     93% 0 mm
07:29 15.8 °C 14.6 °C 1015.8 hPa Calm     92% 0 mm
07:34 15.9 °C 14.6 °C 1015.8 hPa Calm     92% 0 mm
07:39 16 °C 14.7 °C 1016.1 hPa Calm     92% 0 mm
07:44 16.1 °C 14.8 °C 1016.1 hPa Calm     92% 0 mm
07:49 16.3 °C 15 °C 1016.1 hPa Calm     92% 0 mm
07:54 16.4 °C 15.1 °C 1016.1 hPa ENE 3.2 km/h 6.4 km/h 92% 0 mm
07:59 16.5 °C 15 °C 1016.1 hPa Calm   4.8 km/h 91% 0 mm
08:04 16.7 °C 15.2 °C 1016.1 hPa Calm     91% 0 mm
08:09 16.8 °C 15.3 °C 1016.1 hPa Calm     91% 0 mm
08:14 16.9 °C 15.3 °C 1016.1 hPa Calm     90% 0 mm
08:19 17.2 °C 15.5 °C 1016.1 hPa ENE 3.2 km/h 4.8 km/h 90% 0 mm
08:24 17.4 °C 15.6 °C 1016.1 hPa Calm   4.8 km/h 89% 0 mm
08:29 17.7 °C 15.9 °C 1016.5 hPa Calm   4.8 km/h 89% 0 mm
08:34 18.1 °C 16.1 °C 1016.5 hPa Calm   4.8 km/h 88% 0 mm
08:39 18.4 °C 16.2 °C 1016.5 hPa Calm   4.8 km/h 87% 0 mm
08:44 18.6 °C 16.2 °C 1016.5 hPa Calm   3.2 km/h 86% 0 mm
08:49 18.8 °C 16.2 °C 1016.1 hPa Calm     85% 0 mm
08:54 18.9 °C 16.2 °C 1016.5 hPa Calm     84% 0 mm
08:59 19.1 °C 16.3 °C 1016.5 hPa Calm     84% 0 mm
09:04 19.3 °C 16.4 °C 1016.5 hPa Calm     83% 0 mm
09:09 19.5 °C 16.3 °C 1016.5 hPa Calm     82% 0 mm
09:14 19.8 °C 16.5 °C 1016.5 hPa Calm     81% 0 mm
09:19 20.1 °C 16.7 °C 1016.5 hPa NE 4.8 km/h 8 km/h 81% 0 mm
09:24 20.2 °C 16.7 °C 1016.5 hPa Calm   8 km/h 80% 0 mm
09:29 20.4 °C 16.7 °C 1016.5 hPa Calm   6.4 km/h 79% 0 mm
09:34 20.4 °C 16.6 °C 1016.5 hPa East 1.6 km/h 8 km/h 79% 0 mm
09:39 20.8 °C 16.8 °C 1016.5 hPa ESE 1.6 km/h 8 km/h 78% 0 mm
09:44 21.1 °C 16.9 °C 1016.5 hPa Calm   1.6 km/h 77% 0 mm
09:54 21.7 °C 17.3 °C 1016.5 hPa Calm   8 km/h 76% 0 mm
09:59 21.9 °C 17.1 °C 1016.5 hPa Calm     74% 0 mm
10:04 22.1 °C 17.3 °C 1016.5 hPa Calm     74% 0 mm
10:09 22.5 °C 17.6 °C 1016.5 hPa Calm     74% 0 mm
10:14 22.7 °C 17.1 °C 1016.5 hPa Calm     71% 0 mm
10:19 23 °C 17.7 °C 1016.5 hPa Calm     72% 0 mm
10:24 23.1 °C 17.3 °C 1016.5 hPa Calm     70% 0 mm
10:29 23.4 °C 17.9 °C 1016.5 hPa Calm     71% 0 mm
10:34 23.6 °C 17.3 °C 1016.5 hPa Calm     68% 0 mm
10:39 23.8 °C 17.6 °C 1016.5 hPa Calm     68% 0 mm
10:44 23.9 °C 17.7 °C 1016.5 hPa Calm     68% 0 mm
10:49 24.3 °C 18 °C 1016.5 hPa Calm     68% 0 mm
10:54 24.4 °C 18.2 °C 1016.5 hPa Calm     68% 0 mm
10:59 24.6 °C 17.8 °C 1016.5 hPa Calm     66% 0 mm
11:04 24.9 °C 17.7 °C 1016.5 hPa Calm     64% 0 mm
11:09 25.2 °C 18.7 °C 1016.5 hPa Calm     67% 0 mm
11:14 25.5 °C 18.2 °C 1016.5 hPa Calm     64% 0 mm
11:19 25.8 °C 18.4 °C 1016.5 hPa Calm     64% 0 mm
11:24 25.7 °C 18.2 °C 1016.5 hPa Calm   4.8 km/h 63% 0 mm
11:29 25.8 °C 17.7 °C 1016.5 hPa Calm   4.8 km/h 61% 0 mm
11:34 25.8 °C 18.8 °C 1016.5 hPa NNW 6.4 km/h 8 km/h 65% 0 mm
11:39 25.8 °C 18.8 °C 1016.5 hPa NNW 3.2 km/h 8 km/h 65% 0 mm
11:44 25.8 °C 17.9 °C 1016.5 hPa NNE 3.2 km/h 8 km/h 62% 0 mm
11:49 25.8 °C 17.7 °C 1016.5 hPa NE 3.2 km/h 11.3 km/h 61% 0 mm
11:54 25.8 °C 18 °C 1016.5 hPa ENE 4.8 km/h 11.3 km/h 62% 0 mm
11:59 26 °C 17.9 °C 1016.5 hPa ENE 6.4 km/h 11.3 km/h 61% 0 mm
12:04 26.1 °C 18 °C 1016.5 hPa ENE 4.8 km/h 11.3 km/h 61% 0 mm
12:09 26 °C 17.9 °C 1016.5 hPa ENE 4.8 km/h 11.3 km/h 61% 0 mm
12:14 26.6 °C 18.4 °C 1016.5 hPa NE 3.2 km/h 8 km/h 61% 0 mm
12:19 26.3 °C 18.2 °C 1016.5 hPa NE 4.8 km/h 9.7 km/h 61% 0 mm
12:24 26.8 °C 18.9 °C 1016.5 hPa NE 3.2 km/h 9.7 km/h 62% 0 mm
12:29 26.4 °C 17.5 °C 1016.5 hPa NE 4.8 km/h 16.1 km/h 58% 0 mm
12:34 26.4 °C 17.5 °C 1016.1 hPa ENE 6.4 km/h 16.1 km/h 58% 0 mm
12:39 26.3 °C 17.7 °C 1016.1 hPa ENE 4.8 km/h 12.9 km/h 59% 0 mm
12:44 26.6 °C 18.2 °C 1016.1 hPa NE 4.8 km/h 12.9 km/h 60% 0 mm
12:49 26.8 °C 18.7 °C 1016.1 hPa NE 6.4 km/h 6.4 km/h 61% 0 mm
12:54 26.9 °C 17.9 °C 1016.1 hPa East 8 km/h 11.3 km/h 58% 0 mm
12:59 26.7 °C 17.5 °C 1016.1 hPa NE 3.2 km/h 14.5 km/h 57% 0 mm
13:04 26.7 °C 17.7 °C 1016.1 hPa Calm   6.4 km/h 58% 0 mm
13:09 27.1 °C 18.3 °C 1016.1 hPa ESE 1.6 km/h 6.4 km/h 59% 0 mm
13:14 27.3 °C 16.8 °C 1016.1 hPa ENE 3.2 km/h 11.3 km/h 53% 0 mm
13:19 27.2 °C 17.6 °C 1016.1 hPa East 4.8 km/h 11.3 km/h 56% 0 mm
13:24 27.2 °C 15.9 °C 1016.1 hPa ENE 3.2 km/h 9.7 km/h 50% 0 mm
13:29 27.4 °C 16.9 °C 1016.1 hPa ENE 4.8 km/h 11.3 km/h 53% 0 mm
13:34 27.6 °C 16.9 °C 1015.8 hPa SE 3.2 km/h 8 km/h 52% 0 mm
13:39 27.5 °C 16.4 °C 1015.8 hPa NE 9.7 km/h 14.5 km/h 51% 0 mm
13:44 27.4 °C 16.7 °C 1015.8 hPa ENE 4.8 km/h 14.5 km/h 52% 0 mm
13:49 27.3 °C 16.8 °C 1015.8 hPa ENE 4.8 km/h 14.5 km/h 53% 0 mm
13:54 27.9 °C 17.5 °C 1015.8 hPa ENE 3.2 km/h 12.9 km/h 53% 0 mm
13:59 27.6 °C 17.7 °C 1015.8 hPa ENE 4.8 km/h 14.5 km/h 55% 0 mm
14:04 27.7 °C 17.8 °C 1015.8 hPa ENE 4.8 km/h 14.5 km/h 55% 0 mm
14:09 27.5 °C 17.9 °C 1015.5 hPa ENE 4.8 km/h 14.5 km/h 56% 0 mm
14:14 27.7 °C 18.2 °C 1015.5 hPa ESE 6.4 km/h 12.9 km/h 56% 0 mm
14:19 28 °C 18.1 °C 1015.5 hPa NE 3.2 km/h 14.5 km/h 55% 0 mm
14:24 27.8 °C 18.2 °C 1015.5 hPa NNE 3.2 km/h 11.3 km/h 56% 0 mm
14:29 28.1 °C 18.8 °C 1015.5 hPa ESE 8 km/h 11.3 km/h 57% 0 mm
14:34 28.1 °C 17.9 °C 1015.5 hPa SE 4.8 km/h 11.3 km/h 54% 0 mm
14:39 28 °C 18.1 °C 1015.5 hPa East 1.6 km/h 6.4 km/h 55% 0 mm
14:44 28.1 °C 17.3 °C 1015.5 hPa East 1.6 km/h 8 km/h 52% 0 mm
14:49 28.3 °C 18.4 °C 1015.5 hPa ENE 11.3 km/h 12.9 km/h 55% 0 mm
14:54 28.1 °C 18.2 °C 1015.5 hPa ENE 3.2 km/h 16.1 km/h 55% 0 mm
14:59 28 °C 18.1 °C 1015.1 hPa ENE 6.4 km/h 16.1 km/h 55% 0 mm
15:04 28.1 °C 18.2 °C 1015.1 hPa ENE 8 km/h 17.7 km/h 55% 0 mm
15:09 27.9 °C 18.3 °C 1015.1 hPa ESE 1.6 km/h 11.3 km/h 56% 0 mm
15:14 27.7 °C 19.7 °C 1015.1 hPa East 4.8 km/h 12.9 km/h 62% 0 mm
15:19 27.8 °C 19.6 °C 1015.1 hPa NE 6.4 km/h 19.3 km/h 61% 0 mm
15:24 27.7 °C 19.8 °C 1015.1 hPa ENE 3.2 km/h 14.5 km/h 62% 0 mm
15:29 27.3 °C 19.9 °C 1015.1 hPa NE 3.2 km/h 9.7 km/h 64% 0 mm
15:34 27.8 °C 19.8 °C 1015.1 hPa Calm   4.8 km/h 62% 0 mm
15:39 28 °C 19.2 °C 1015.1 hPa NE 12.9 km/h 16.1 km/h 59% 0 mm
15:44 27.9 °C 19.4 °C 1015.1 hPa ENE 6.4 km/h 16.1 km/h 60% 0 mm
15:49 28.1 °C 19.6 °C 1015.1 hPa ENE 6.4 km/h 16.1 km/h 60% 0 mm
15:54 27.9 °C 19.1 °C 1015.1 hPa ENE 4.8 km/h 16.1 km/h 59% 0 mm
15:59 28.1 °C 20.1 °C 1015.1 hPa NE 11.3 km/h 12.9 km/h 62% 0 mm
16:04 27.3 °C 19.3 °C 1015.1 hPa NE 11.3 km/h 14.5 km/h 62% 0 mm
16:09 26.6 °C 19.2 °C 1015.1 hPa ENE 3.2 km/h 14.5 km/h 64% 0 mm
16:14 26.4 °C 19.1 °C 1014.8 hPa ENE 6.4 km/h 14.5 km/h 64% 0 mm
16:19 27 °C 19.8 °C 1014.8 hPa NE 6.4 km/h 14.5 km/h 65% 0 mm
16:24 27.1 °C 19.2 °C 1014.8 hPa ENE 11.3 km/h 16.1 km/h 62% 0 mm
16:29 26.7 °C 19.6 °C 1014.8 hPa NE 4.8 km/h 19.3 km/h 65% 0 mm
16:34 26.9 °C 20 °C 1014.8 hPa NE 6.4 km/h 12.9 km/h 66% 0 mm
16:39 27 °C 19.6 °C 1015.1 hPa ENE 8 km/h 17.7 km/h 64% 0 mm
16:44 27.1 °C 19.4 °C 1015.1 hPa NE 8 km/h 17.7 km/h 63% 0 mm
16:49 26.7 °C 19.1 °C 1015.1 hPa SE 4.8 km/h 12.9 km/h 63% 0 mm
16:54 26.8 °C 19.7 °C 1015.1 hPa ENE 1.6 km/h 11.3 km/h 65% 0 mm
16:59 27.3 °C 19.9 °C 1015.1 hPa NE 3.2 km/h 11.3 km/h 64% 0 mm
17:04 27.2 °C 19.8 °C 1015.1 hPa ENE 8 km/h 12.9 km/h 64% 0 mm
17:09 26.7 °C 19.1 °C 1015.1 hPa ENE 8 km/h 19.3 km/h 63% 0 mm
17:14 26.3 °C 19.2 °C 1015.1 hPa NE 8 km/h 19.3 km/h 65% 0 mm
17:19 26.6 °C 19.4 °C 1015.1 hPa ENE 6.4 km/h 16.1 km/h 65% 0 mm
17:24 26.5 °C 19.4 °C 1015.1 hPa ENE 6.4 km/h 16.1 km/h 65% 0 mm
17:29 26.6 °C 19.2 °C 1015.1 hPa ENE 8 km/h 16.1 km/h 64% 0 mm
17:34 26.6 °C 19 °C 1015.1 hPa ENE 4.8 km/h 12.9 km/h 63% 0 mm
17:39 26.6 °C 19.2 °C 1015.1 hPa ENE 3.2 km/h 12.9 km/h 64% 0 mm
17:44 26.6 °C 19.4 °C 1015.1 hPa ENE 4.8 km/h 12.9 km/h 65% 0 mm
17:49 26.4 °C 19.3 °C 1015.1 hPa ENE 11.3 km/h 11.3 km/h 65% 0 mm
17:54 26.2 °C 19.4 °C 1015.1 hPa East 8 km/h 16.1 km/h 66% 0 mm
17:59 26.1 °C 19.2 °C 1015.1 hPa ENE 6.4 km/h 16.1 km/h 66% 0 mm
18:04 25.9 °C 19.3 °C 1015.1 hPa NE 8 km/h 12.9 km/h 67% 0 mm
18:09 25.8 °C 19.5 °C 1015.1 hPa NE 4.8 km/h 12.9 km/h 68% 0 mm
18:14 25.8 °C 19.4 °C 1015.5 hPa ENE 4.8 km/h 14.5 km/h 68% 0 mm
18:19 25.6 °C 19.4 °C 1015.1 hPa ENE 6.4 km/h 16.1 km/h 69% 0 mm
18:24 25.4 °C 19.3 °C 1015.1 hPa NE 6.4 km/h 16.1 km/h 69% 0 mm
18:29 25.4 °C 19.3 °C 1015.1 hPa NE 6.4 km/h 17.7 km/h 69% 0 mm
18:34 25.3 °C 19.2 °C 1015.5 hPa NE 8 km/h 17.7 km/h 69% 0 mm
18:39 25.2 °C 19.3 °C 1015.5 hPa East 3.2 km/h 11.3 km/h 70% 0 mm
18:44 25.1 °C 19.2 °C 1015.5 hPa ENE 6.4 km/h 12.9 km/h 70% 0 mm
18:49 24.9 °C 19.1 °C 1015.5 hPa ENE 3.2 km/h 11.3 km/h 70% 0 mm
18:54 24.8 °C 19 °C 1015.5 hPa ENE 6.4 km/h 12.9 km/h 70% 0 mm
18:59 24.7 °C 18.8 °C 1015.5 hPa ENE 4.8 km/h 11.3 km/h 70% 0 mm
19:04 24.6 °C 18.7 °C 1015.5 hPa NE 8 km/h 12.9 km/h 70% 0 mm
19:09 24.4 °C 18.6 °C 1015.8 hPa NE 6.4 km/h 12.9 km/h 70% 0 mm
19:14 24.3 °C 18.7 °C 1015.8 hPa NE 6.4 km/h 12.9 km/h 71% 0 mm
19:19 24.2 °C 18.6 °C 1015.8 hPa ENE 4.8 km/h 12.9 km/h 71% 0 mm
19:24 24.1 °C 18.5 °C 1015.8 hPa ENE 6.4 km/h 12.9 km/h 71% 0 mm
19:29 24 °C 18.4 °C 1015.8 hPa ENE 6.4 km/h 12.9 km/h 71% 0 mm
19:34 23.9 °C 18.6 °C 1015.8 hPa ENE 3.2 km/h 12.9 km/h 72% 0 mm
19:39 23.7 °C 18.6 °C 1015.8 hPa NE 4.8 km/h 4.8 km/h 73% 0 mm
19:44 23.5 °C 18.6 °C 1015.8 hPa ENE 1.6 km/h 8 km/h 74% 0 mm
19:49 23.4 °C 18.5 °C 1015.8 hPa NE 1.6 km/h 8 km/h 74% 0 mm
19:54 23.3 °C 18.4 °C 1015.8 hPa Calm   8 km/h 74% 0 mm
19:59 23.1 °C 18.4 °C 1016.1 hPa NE 4.8 km/h 8 km/h 75% 0 mm
20:04 23.1 °C 18.4 °C 1016.1 hPa NE 4.8 km/h 11.3 km/h 75% 0 mm
20:09 23 °C 18.1 °C 1016.1 hPa NE 4.8 km/h 9.7 km/h 74% 0 mm
20:14 22.9 °C 18.2 °C 1016.1 hPa NE 4.8 km/h 9.7 km/h 75% 0 mm
20:19 22.8 °C 18.1 °C 1016.1 hPa NE 4.8 km/h 11.3 km/h 75% 0 mm
20:24 22.7 °C 18 °C 1016.1 hPa ENE 3.2 km/h 11.3 km/h 75% 0 mm
20:29 22.5 °C 17.8 °C 1016.1 hPa ENE 3.2 km/h 8 km/h 75% 0 mm
20:34 22.4 °C 17.8 °C 1016.5 hPa ENE 3.2 km/h 11.3 km/h 75% 0 mm
20:39 22.3 °C 17.7 °C 1016.5 hPa ENE 3.2 km/h 11.3 km/h 75% 0 mm
20:44 22.2 °C 17.6 °C 1016.5 hPa ENE 4.8 km/h 8 km/h 75% 0 mm
20:49 22.2 °C 17.5 °C 1016.5 hPa Calm   11.3 km/h 75% 0 mm
20:54 22.1 °C 17.4 °C 1016.5 hPa Calm   4.8 km/h 75% 0 mm
20:59 21.9 °C 17.3 °C 1016.5 hPa East 3.2 km/h 8 km/h 75% 0 mm
21:04 21.8 °C 17 °C 1016.5 hPa East 3.2 km/h 11.3 km/h 74% 0 mm
21:09 21.8 °C 16.9 °C 1016.5 hPa ENE 6.4 km/h 6.4 km/h 74% 0 mm
21:14 21.7 °C 16.8 °C 1016.5 hPa East 3.2 km/h 6.4 km/h 74% 0 mm
21:19 21.5 °C 16.9 °C 1016.5 hPa East 1.6 km/h 9.7 km/h 75% 0 mm
21:24 21.3 °C 16.5 °C 1016.5 hPa East 1.6 km/h 9.7 km/h 74% 0 mm
21:29 21.3 °C 16.7 °C 1016.5 hPa East 1.6 km/h 9.7 km/h 75% 0 mm
21:34 21.1 °C 16.5 °C 1016.5 hPa East 1.6 km/h 6.4 km/h 75% 0 mm
21:39 21 °C 16.4 °C 1016.5 hPa Calm   3.2 km/h 75% 0 mm
21:44 20.8 °C 16.2 °C 1016.5 hPa Calm   1.6 km/h 75% 0 mm
21:49 20.7 °C 16.3 °C 1016.5 hPa Calm   1.6 km/h 76% 0 mm
21:54 20.7 °C 16.3 °C 1016.5 hPa Calm     76% 0 mm
21:59 20.7 °C 16.3 °C 1016.5 hPa Calm     76% 0 mm
22:04 20.5 °C 16.1 °C 1016.5 hPa Calm     76% 0 mm
22:09 20.3 °C 16.2 °C 1016.5 hPa Calm     77% 0 mm
22:14 20.2 °C 16 °C 1016.5 hPa Calm     77% 0 mm
22:19 19.9 °C 15.9 °C 1016.5 hPa Calm     78% 0 mm
22:24 19.7 °C 16 °C 1016.5 hPa Calm     79% 0 mm
22:29 19.7 °C 16 °C 1016.5 hPa Calm     79% 0 mm
22:34 19.7 °C 15.9 °C 1016.5 hPa Calm     79% 0 mm
22:39 19.6 °C 16.1 °C 1016.5 hPa Calm     80% 0 mm
22:44 19.6 °C 16 °C 1016.5 hPa Calm     80% 0 mm
22:49 19.4 °C 15.9 °C 1016.5 hPa Calm     80% 0 mm
22:54 19.4 °C 16.1 °C 1016.5 hPa Calm     81% 0 mm
22:59 19.3 °C 16 °C 1016.5 hPa Calm     81% 0 mm
23:04 19.3 °C 15.9 °C 1016.5 hPa Calm     81% 0 mm
23:09 19.2 °C 15.9 °C 1016.5 hPa Calm     81% 0 mm
23:19 19.2 °C 15.8 °C 1016.5 hPa Calm     81% 0 mm
23:20 19.2 °C 15.8 °C 1016.5 hPa Calm     81% 0 mm
23:24 19.2 °C 15.8 °C 1016.5 hPa Calm     81% 0 mm
23:34 19.1 °C 15.7 °C 1016.5 hPa Calm     81% 0 mm
23:39 18.9 °C 15.6 °C 1016.5 hPa Calm     81% 0 mm
23:44 18.9 °C 15.6 °C 1016.5 hPa Calm     81% 0 mm
23:49 18.8 °C 15.7 °C 1016.5 hPa Calm     82% 0 mm
23:54 18.8 °C 15.7 °C 1016.1 hPa ENE 4.8 km/h 4.8 km/h 82% 0 mm
23:59 18.8 °C 15.7 °C 1016.1 hPa Calm   4.8 km/h 82% 0 mm
Buffalo, New York, USA
Compliments of Weather Underground - 2.5 mb